Regional Weather Roundup
Issued by NWS

Home | Current Version | Previous Version | Text Only | Print | Product List | Glossary On
Versions: 1 2 3 4 5 6 7 8 9 10 11 12 13 14 15 16 17 18 19 20 21 22 23 24 25 26 27 28 29 30 31 32 33 34 35 36 37 38 39 40 41 42 43 44 45 46 47 48 49 50
000
ASUS45 KREV 272010
RWRNV
NEVADA REGIONAL WEATHER ROUNDUP
NATIONAL WEATHER SERVICE RENO NV
1200 PM PST MON FEB 27 2017

NOTE: "FAIR" INDICATES FEW OR NO CLOUDS BELOW 12,000 FEET WITH NO
SIGNIFICANT WEATHER AND/OR OBSTRUCTIONS TO VISIBILITY.

NVZ001-003-004-272100-
WESTERN NEVADA

CITY           SKY/WX    TMP DP  RH WIND       PRES   REMARKS
RENO           MOSUNNY   40  10  29 W10       29.81F
CARSON CITY    FAIR      37   5  25 W8        29.82F
MINDEN         FAIR      37   9  30 SW7G18    29.82F
PYRAMID LAKE     N/A     34 N/A N/A N8          N/A
FALLON         PTSUNNY   39  13  34 W9        29.82F
LOVELOCK       PTSUNNY   36  17  46 NW12      29.83F
HAWTHORNE      PTSUNNY   37  23  56 W9        29.82F
$$

NVZ002-CAZ072-073-272100-
NORTHERN AND CENTRAL SIERRA

CITY           SKY/WX    TMP DP  RH WIND       PRES   REMARKS
S. LAKE TAHOE  MOSUNNY   29  10  45 S7        29.79R
TRUCKEE        PTSUNNY   28  12  50 NW7       29.81R
SQUAW VLY 8000   N/A     19  19 100 SW10        N/A
MAMMOTH LAKES  FAIR      31  18  56 NW16G28   29.73S
BRIDGEPORT       N/A     31   9  39 SW6       29.72S
$$

NVZ030-031-036-272100-
NORTHERN NEVADA

CITY           SKY/WX    TMP DP  RH WIND       PRES   REMARKS
ELKO           MOSUNNY   31  16  54 W18       29.74S
WINNEMUCCA     NOT AVBL
WENDOVER       PTSUNNY   37  12  35 W22G29    29.72S
$$

NVZ035-037-272100-
CENTRAL NEVADA

CITY           SKY/WX    TMP DP  RH WIND       PRES   REMARKS
ELY            CLOUDY    28  18  66 NE6       29.73S
EUREKA           N/A     29  14  53 W12G21    29.76S
$$

NVZ013-014-272100-
SOUTH CENTRAL NEVADA

CITY           SKY/WX    TMP DP  RH WIND       PRES   REMARKS
TONOPAH        CLOUDY    37  19  48 NW12      29.75F
$$

NVZ017-020-022-272100-
SOUTHERN NEVADA

CITY           SKY/WX    TMP DP  RH WIND       PRES   REMARKS
LAS VEGAS      CLOUDY    56  32  40 SW15G22   29.78F
N. LAS VEGAS   CLOUDY    55  32  41 S13       29.78F
NELLIS AFB     PTSUNNY   56  33  42 S18       29.79F
HENDERSON      CLOUDY    53  33  46 SW9       29.82F
MERCURY        MOSUNNY   51  28  41 SW15G28   29.77F
$$



USA.gov is the U.S. government's official web portal to all federal, state and local government web resources and services.